Tracking 19795 objects as of 20-Jul-2019
HD Live streaming from Space Station
objects crossing your sky now

ITF-2


ITF-2 is no longer on orbit
ITF-2 is classified as:


NORAD ID: 41932
Int'l Code: 1998-067KU
Perigee: N/A
Apogee: N/A
Inclination: N/A
Period: N/A
Semi major axis: N/A
RCS: N/A
Launch date: November 20, 1998
Source: Japan (JPN)
Launch site: TYURATAM MISSILE AND SPACE COMPLEX (TTMTR)
Decay date: 2019-01-03

Uplink (MHz):
Downlink (MHz): 437.525
Beacon (MHz): 437.525
Mode: 1200bps FM CW
Call sign: JQ1ZTK
Status: Reentered

aabbcc
Your satellite tracking list
Your tracking list is empty




NASA's NSSDC Master Catalog

Two Line Element Set (TLE):
1 41932U 98067KU  19003.69298287  .08988731  12526-4  32153-3 0  9994
2 41932  51.6105   8.9412 0001311 269.7383  90.3495 16.44586236112635
Source of the keplerian elements: AMSAT